Location: Sawyer Lake
(45.2517°N, 88.7550°W)
Time: 02:25:58
(UTC-06:00)

Daily predictions for brighter satellites

Satellite Brightness Start Highest point End
(mag) Time Altitude Azimuth Time Altitude Azimuth Time Altitude Azimuth
Cosmos 2333 Rocket 4.4 03:45:24 17° NNE 03:45:24 17° NNE 03:46:37 10° NNE
USA 215 4.4 03:48:32 10° ENE 03:54:29 36° SE 03:56:46 28° SSE
SL-16 R/B 2.9 04:05:26 51° E 04:05:26 51° E 04:10:33 10° NE
CENTAUR R/B 2.6 04:12:47 75° NE 04:12:47 75° NE 04:19:10 10° NE
Cosmos 1238 Rocket 4.2 04:17:54 50° E 04:17:54 50° E 04:23:14 10° SSE
CZ-4C R/B 4.4 04:19:47 16° N 04:19:47 16° N 04:22:59 10° NNE
ATLAS 3B R/B 4.4 04:31:38 19° NNW 04:31:38 19° NNW 04:36:19 10° NNE
Cosmos 2237 Rocket 3.6 04:38:25 25° N 04:38:25 25° N 04:40:57 10° NNE
Cosmos 2074 Rocket 4.3 04:32:59 10° S 04:39:11 64° E 04:45:22 10° NNE
Lacrosse 5 4.3 04:37:17 10° S 04:41:01 21° ESE 04:44:44 10° ENE
ADEOS II 3.8 04:43:59 10° N 04:45:35 20° N 04:45:35 20° N
Feng Yun 1-1 Rocket 4.1 04:47:35 10° NNE 04:53:14 77° WNW 04:58:42 10° SSW
Cosmos 2184 Rocket 4.0 04:47:49 10° S 04:53:58 79° E 05:00:11 10° N
SL-08 ROCKET BODY 4.3 04:48:32 10° S 04:54:31 84° E 05:00:26 10° N
Meteor 1-18 Rocket 4.2 04:54:57 38° NNW 04:57:16 70° W 05:03:09 10° S
Cosmos 2369 Rocket 3.3 04:57:45 15° N 05:02:09 41° NE 05:07:31 10° SE
Cosmos 1603 4.3 04:57:03 10° S 05:02:36 57° ESE 05:08:10 10° NNE
SKYMED 2 3.6 04:59:44 10° SSE 05:04:04 81° ENE 05:05:45 37° N
Cosmos 292 Rocket 3.6 05:04:40 61° WSW 05:05:14 68° WNW 05:10:03 10° NNE
Cosmos 2056 Rocket 3.6 05:02:29 28° NNW 05:05:16 73° ENE 05:10:22 10° SSE
Cosmos 2151 Rocket 3.4 05:02:33 10° SSW 05:07:03 71° W 05:11:33 10° N
Cosmos 2219 Rocket 4.0 05:15:39 15° NNW 05:15:39 15° NNW 05:17:19 10° N
CRYOSAT 2 4.2 05:09:03 10° S 05:13:57 84° W 05:18:52 10° N
Lacrosse 5 rocket 3.1 05:15:07 20° N 05:15:07 20° N 05:17:47 10° NE
ATLAS 5 CENTAUR R/B 4.3 05:15:07 11° NNW 05:16:18 12° N 05:18:16 10° NNE
Meteor 1-20 Rocket 4.0 05:11:17 10° SSW 05:16:51 68° WNW 05:22:21 10° N
Cosmos 1624 Rocket 3.9 05:16:13 27° NNW 05:19:12 80° WSW 05:24:30 10° SSE
USA 32 4.1 05:17:19 24° NNW 05:20:14 53° W 05:25:19 10° SSW
DMSP B5D1-3 4.4 05:16:05 10° SSE 05:21:14 86° WSW 05:26:26 10° NNW
Ariane Rocket 3.3 05:17:49 10° NNE 05:22:53 68° ESE 05:27:54 10° S
Cosmos 1371 Rocket 4.0 05:21:11 32° NW 05:23:34 61° WSW 05:28:44 10° S
Cosmos 1536 Rocket 3.8 05:24:46 45° WNW 05:25:08 46° W 05:29:20 10° SSW
Cosmos 2333 Rocket 3.8 05:27:26 17° NNW 05:27:26 17° NNW 05:29:52 10° N
Cosmos 1943 4.5 05:23:39 10° S 05:28:54 43° ESE 05:34:12 10° NE
Cosmos 1610 Rocket 4.4 05:26:19 10° SSW 05:32:29 75° W 05:38:46 10° N
DNEPR-1 R/B 4.4 05:26:23 10° SW 05:33:35 72° NW 05:39:29 10° NNE
USA 215 3.2 05:31:17 10° NE 05:37:49 75° NW 05:44:09 11° WSW
Cosmos 1025 Rocket 3.6 05:34:32 10° N 05:38:55 59° E 05:43:12 10° SSE
Tiangong 2 1.5 05:38:56 39° SW 05:39:46 54° S 05:42:52 10° E
Okean 1 4.1 05:42:07 30° W 05:42:07 30° W 05:45:28 10° SSW
Meteor 1-19 Rocket 4.2 05:38:38 10° NNW 05:44:31 78° W 05:50:17 10° S
Cosmos 921 Rocket 4.0 05:44:57 26° W 05:45:11 27° W 05:48:57 10° SSW
Okean 1 Rocket 2.9 05:42:23 10° SSW 05:46:47 72° W 05:51:10 10° N
Cosmos 1680 Rocket 4.3 05:46:28 24° W 05:48:03 28° WNW 05:52:32 10° N
Abrixas rocket 4.1 05:45:09 10° SSW 05:48:09 31° SSE 05:51:10 10° E
SL-16 R/B 3.0 05:47:25 23° W 05:49:27 28° NW 05:54:21 10° N
Meteor 1-11 Rocket 3.7 05:45:22 10° SSW 05:51:14 81° W 05:57:00 10° N
CZ-3 R/B 3.9 05:50:25 10° SSW 05:51:49 11° SSW 05:53:00 10° S
Cosmos 1943 Rocket 3.1 05:46:49 10° NNW 05:52:08 46° ENE 05:57:24 10° SE
COSMO-SKYMED 1 3.3 05:48:22 10° SSW 05:52:14 32° W 05:54:20 21° NW
Cosmos 1602 3.8 05:49:05 10° SSW 05:52:57 55° W 05:56:53 10° N
Cosmos 1452 Rocket 3.6 05:49:26 10° NNW 05:54:45 84° ENE 06:00:02 10° SSE
Okean 1-7 Rocket 3.6 05:52:04 10° NNW 05:56:25 58° W 06:00:42 10° S
Okean 2 4.1 05:53:28 10° N 05:57:37 57° E 06:01:43 10° SSE
Cosmos 1346 Rocket 3.9 05:58:38 22° W 05:58:55 22° W 06:02:00 10° SW
GRACE-2 4.4 05:56:45 10° N 05:59:31 61° E 06:02:15 10° S
GRACE-1 4.3 05:57:10 10° N 05:59:56 63° E 06:02:41 10° S
SMAP 4.2 05:55:36 10° NNE 06:00:07 47° E 06:04:35 10° S
CZ-2C R/B 3.5 05:55:26 10° NNE 06:00:30 51° E 06:05:27 10° S
Cosmos 44 4.2 05:55:38 10° SSW 06:00:53 57° ESE 06:05:59 10° NE
Nadezhda 3 Rocket 4.1 05:56:29 10° NNW 06:02:40 55° W 06:08:50 10° SSW
CENTAUR R/B 3.5 06:00:01 18° WNW 06:03:47 29° NNW 06:09:59 10° NNE
Cosmos 2263 4.2 05:59:34 10° NNW 06:05:14 86° ENE 06:10:51 10° SSE
Cosmos 1633 3.0 06:04:18 10° SSW 06:07:44 39° WNW 06:11:11 10° N
Cosmos 839 Rocket 4.5 06:02:46 10° NNW 06:09:35 62° NE 06:15:40 10° SE
CZ-4C R/B 4.4 06:05:46 10° NNW 06:10:17 19° NNE 06:15:10 10° ENE
Cosmos 1892 Rocket 3.8 06:07:58 10° N 06:12:27 77° E 06:16:55 10° SSE
Meteor 1-23 Rocket 4.1 06:08:42 10° NNW 06:14:14 71° W 06:19:45 10° S
CZ-4 R/B 1.3 06:11:14 10° NNE 06:15:14 90° SW 06:19:09 10° SSW
Meteor 1-28 Rocket 4.2 06:12:22 10° SSW 06:15:40 28° W 06:19:00 10° NW
USA 129 3.1 06:14:05 10° SSW 06:15:46 21° W 06:15:53 21° W
Cosmos 1300 Rocket 4.4 06:13:17 10° SW 06:17:07 28° WNW 06:20:57 10° NNW
SJ-12 4.0 06:14:32 10° NNE 06:18:44 87° E 06:22:54 10° SSW
Cosmos 2237 Rocket 4.1 06:20:39 10° NW 06:21:14 10° NW 06:21:48 10° NNW
SL-23 DEB 3.4 06:20:42 14° WNW 06:23:16 80° NNE 06:27:06 10° ESE
Lacrosse 5 1.8 06:18:21 10° SW 06:23:28 80° NW 06:28:35 10° NE
Cosmos 1727 Rocket 4.4 06:17:38 10° N 06:23:49 68° E 06:29:58 10° SSE
Cosmos 2341 Rocket 4.1 06:18:21 10° SSW 06:24:31 54° WNW 06:30:39 10° N
ATLAS 3B R/B 4.4 06:20:12 10° NNW 06:25:12 20° NNE 06:30:01 10° ENE
Lacrosse 4 Rocket 2.4 06:24:04 10° NNW 06:28:05 44° NE 06:32:01 10° SE
Cosmos 1536 3.4 06:25:39 10° SW 06:29:20 35° WNW 06:33:04 10° N
Meteor 2-4 Rocket 4.0 06:24:57 10° NNW 06:30:09 44° W 06:35:27 10° SSW
Cosmos 1900 4.3 06:26:27 10° NW 06:31:21 78° WSW 06:36:17 10° SSE
Cosmos 1340 2.6 06:27:56 10° NNW 06:31:43 65° W 06:35:27 10° S
CSL-04 Rocket 4.1 06:27:58 10° N 06:33:07 40° WNW 06:38:14 10° SW
CSL-04 Debris 4.5 06:29:23 10° N 06:34:33 45° WNW 06:39:43 10° SW
Cosmos 44 Rocket 3.6 06:29:38 10° SW 06:34:41 51° NW 06:39:40 10° NNE
PAYLOAD A 4.2 06:30:19 10° N 06:35:32 57° WNW 06:40:50 10° SSW
IRS-1A Rocket 4.4 06:30:39 10° N 06:36:11 55° WNW 06:41:48 10° SW
Cosmos 1455 Rocket 3.1 06:37:00 10° S 06:41:19 90° NE 06:45:41 10° N
Meteor 1-5 Rocket 4.1 06:38:03 10° SSW 06:43:21 60° WNW 06:48:37 10° N
Cosmos 1484 Rocket 3.3 06:41:53 10° NNE 06:45:38 64° E 06:49:24 10° S
Cosmos 2369 Rocket 3.0 06:40:59 10° NW 06:46:05 34° WSW 06:51:09 10° SSW
MONITOR-E 4.2 06:42:59 10° NNE 06:46:12 89° WNW 06:49:24 10° SSW
SPOT 3 Rocket 3.5 06:41:23 10° N 06:46:32 71° WNW 06:51:38 10° SSW
Cosmos 1420 Rocket 4.2 06:45:45 10° NNW 06:50:54 55° WSW 06:55:58 10° S
